Regional Weather Roundup
Issued by NWS

Home | Current Version | Previous Version | Graphics & Text | Print | Product List | Glossary On
Versions: 1 2 3 4 5 6 7 8 9 10 11 12 13 14 15 16 17 18 19 20 21 22 23 24 25 26 27 28 29 30 31 32 33 34 35 36 37 38 39 40 41 42 43 44 45 46 47 48 49 50
000
ASUS45 KBOU 221207
RWRCO

WEATHER ROUNDUP FOR COLORADO
NATIONAL WEATHER SERVICE DENVER/BOULDER CO
600 AM MDT FRI AUG 22 2014

NOTE: "FAIR" INDICATES FEW OR NO CLOUDS BELOW 12000 FEET WITH NO
SIGNIFICANT WEATHER AND/OR OBSTRUCTIONS TO VISIBILITY.

COZ001>005-013-030-031-221300-
...NORTHWEST COLORADO...

CITY           SKY/WX    TMP DP  RH WIND       PRES   REMARKS
CRAIG          CLOUDY    56  49  77 N9        30.18F
HAYDEN         CLOUDY    54  45  71 E7        30.22R
MEEKER         CLOUDY    54  47  77 N3        30.20F
MOUNT WERNER   NOT AVBL
STEAMBOAT SPGS CLOUDY    50  47  89 CALM      30.25R
WALDEN         MOCLDY    46  43  87 S3        30.32R
$$

COZ006>008-011-221300-
...WEST CENTRAL VALLEYS...

CITY           SKY/WX    TMP DP  RH WIND       PRES   REMARKS
GRAND JUNCTION CLOUDY    67  48  50 SE21G28   30.10R
MONTROSE       LGT RAIN  59  54  83 E6        30.22F
EAGLE          CLOUDY    55  52  88 S5        30.29R
RIFLE          CLOUDY    59  52  77 E7        30.19R
DELTA          RAIN      62  55  76 NE9       30.20F
NUCLA          CLOUDY    59  50  72 E6        30.23F
$$

COZ017>023-064>068-221300-
...SOUTHWEST COLORADO...

CITY           SKY/WX    TMP DP  RH WIND       PRES   REMARKS
DURANGO        LGT RAIN  59  48  67 W9        30.24R
CORTEZ         CLOUDY    57  54  89 W3        30.21R
PAGOSA SPRINGS CLOUDY    58  40  51 CALM      30.29S
TELLURIDE      NOT AVBL
WOLF CREEK PAS NOT AVBL
$$

COZ009-010-012-014-032>034-037-058>063-221300-
...CENTRAL COLORADO...

CITY           SKY/WX    TMP DP  RH WIND       PRES   REMARKS
ASPEN          CLOUDY    52  47  83 W3        30.32S
BUENA VISTA    MOCLDY    54  41  62 W5        30.30R
COPPER MTN     CLOUDY    45  37  76 W16       30.56S
BERTHOUD PASS  CLOUDY    39  37  93 W6        30.60R
COTTONWOOD PAS MOCLDY    54  36  50 W7        30.42R
GUNNISON       MOCLDY    54  43  66 CALM      30.34R
KREMMLING      LGT RAIN  52  46  82 CALM      30.32R
LEADVILLE      CLOUDY    46  40  79 N5        30.42R
MONARCH PASS   MOCLDY    39  36  87 SW12      30.65R
SALIDA         MOCLDY    57  43  59 W5        30.35R
SUNLIGHT       DRIZZLE   45  43  93 CALM      30.49S
WILKERSON PASS NOT AVBL
$$

COZ069>075-221300-
...SAN LUIS VALLEY/SANGRE DE CRISTO MOUNTAINS...

CITY           SKY/WX    TMP DP  RH WIND       PRES   REMARKS
ALAMOSA        CLOUDY    54  41  61 CALM      30.25S
LA VETA PASS   NOT AVBL
SAGUACHE       MOCLDY    59  37  44 NW12      30.29S
$$

COZ035-036-038>040-221300-
...NORTHERN COLORADO FRONT RANGE...

CITY           SKY/WX    TMP DP  RH WIND       PRES   REMARKS
DENVER INTL AP CLOUDY    62  56  80 SW6       30.17R
DMNS CITY PARK   N/A     63  56  77 E1        30.15S
AURORA         CLOUDY    61  58  88 CALM      30.19R
FRONT RANGE AP NOT AVBL
ERIE MUNI ARPT CLOUDY    62  59  90 CALM      30.15S
BOULDER MUN AP CLOUDY    61  55  82 S3        30.15S
CENTENNIAL     CLOUDY    60  56  86 SE5       30.19R
BROOMFIELD     CLOUDY    63  55  77 CALM      30.18S
FORT COLLINS   CLOUDY    63  55  77 SE7       30.15F
LONGMONT       CLOUDY    63  58  84 W3        30.16R HAZE
$$

COZ041-046-047-076>085-087-088-221300-
...PIKES PEAK/PALMER DIVIDE AND SOUTHERN FOOTHILLS...

CITY           SKY/WX    TMP DP  RH WIND       PRES   REMARKS
COLO. SPRINGS  CLOUDY    62  50  64 NW7       30.20R
A. F. ACADEMY  CLOUDY    56  49  79 N8        30.22S
ELLICOTT       CLOUDY    61  52  72 NE18G24   30.16S
FALCON         CLOUDY    58  51  78 N10G16    30.24S
FORT CARSON    NOT AVBL
LIMON          CLOUDY    59  56  89 N9        30.14S
MONUMENT HILL  CLOUDY    54  52  94 CALM      30.24F
TRINIDAD       MOCLDY    63  51  65 NW8       30.14R
$$

COZ042>045-048>051-090-091-221300-
...NORTHEAST COLORADO...

CITY           SKY/WX    TMP DP  RH WIND       PRES   REMARKS
GREELEY ARPT   CLOUDY    61  54  77 CALM      30.15S
AKRON          TSTM      61  58  90 N13       30.11F
BURLINGTON     MOCLDY    65  57  75 N14       30.08R
WRAY           RAIN      65  60  85 N13       30.08F
STERLING       DRIZZLE   64  63  94 NE9       30.10F
HOLYOKE        NOT AVBL
FORT MORGAN    CLOUDY    62  59  91 N9        30.13R
$$

COZ086-089-092>099-221300-
...SOUTHEAST COLORADO...

CITY           SKY/WX    TMP DP  RH WIND       PRES   REMARKS
PUEBLO         CLOUDY    68  53  58 N18       30.07R
LA JUNTA       CLOUDY    68  54  60 N10       30.02R
LAMAR          PTCLDY    62  58  86 CALM      29.96R
SPRINGFIELD      N/A     63  53  70 SW10      30.01S
$$



USA.gov is the U.S. government's official web portal to all federal, state and local government web resources and services.